Location: Doux
(49.5045°N, 4.4321°E)
Time: 03:38:08
(UTC+00:00)

Cosmos 2322 Rocket - Pass Details

Date: 23 May 2024
Orbit: 832 x 850 km, 71.0° (Epoch: 17 June)

Event Time Altitude Azimuth Distance (km) Brightness Sun altitude
Rises 00:50:34 0° 333° (NNW) 3,400 6.1 -18.1°
Reaches altitude 10° 00:53:09 10° 341° (NNW) 2,465 5.4 -17.9°
Maximum altitude 00:58:32 43° 52° (NE) 1,172 3.4 -17.7°
Drops below altitude 10° 01:03:54 10° 124° (ESE) 2,463 4.5 -17.4°
Sets 01:06:28 0° 131° (SE) 3,397 5.2 -17.2°
